owner,sensor,date,latitude,longitude,air_temperature,qcFlag 
TABS,ioos:station:wmo:42043:1,2005-02-08T15:00:00Z,28.9818,-94.9186,13.4,11144222 
TABS,ioos:station:wmo:42043:1,2005-02-08T15:30:00Z,28.9818,-94.9186,13.6,11144222 
TABS,ioos:station:wmo:42043:1,2005-02-08T16:00:00Z,28.9818,-94.9186,13.9,11144222 
TABS,ioos:station:wmo:42043:1,2005-02-08T16:30:00Z,28.9818,-94.9186,14.0,11144222 
TABS,ioos:station:wmo:42043:1,2005-02-08T17:00:00Z,28.9818,-94.9186,14.0,11144222 
TABS,ioos:station:wmo:42043:1,2005-02-08T17:30:00Z,28.9818,-94.9186,14.0,11144222 
TABS,ioos:station:wmo:42043:1,2005-02-08T18:00:00Z,28.9818,-94.9186,14.1,11144222 
TABS,ioos:station:wmo:42043:1,2005-02-08T18:30:00Z,28.9818,-94.9186,14.1,11144222 
TABS,ioos:station:wmo:42043:1,2005-02-08T19:00:00Z,28.9818,-94.9186,14.0,11144222 
TABS,ioos:station:wmo:42043:1,2005-02-08T19:30:00Z,28.9818,-94.9186,14.0,11144222 
TABS,ioos:station:wmo:42043:1,2005-02-08T20:00:00Z,28.9818,-94.9186,14.0,11144222 
TABS,ioos:station:wmo:42043:1,2005-02-08T20:30:00Z,28.9818,-94.9186,14.1,11144222 
TABS,ioos:station:wmo:42043:1,2005-02-08T21:00:00Z,28.9818,-94.9186,14.2,11144222 
TABS,ioos:station:wmo:42043:1,2005-02-08T21:30:00Z,28.9818,-94.9186,14.3,11144222 
TABS,ioos:station:wmo:42043:1,2005-02-08T22:00:00Z,28.9818,-94.9186,14.4,11144222 
TABS,ioos:station:wmo:42043:1,2005-02-08T22:30:00Z,28.9818,-94.9186,14.6,11144222 
TABS,ioos:station:wmo:42043:1,2005-02-08T23:00:00Z,28.9818,-94.9186,14.5,11144222 
TABS,ioos:station:wmo:42043:1,2005-02-08T23:30:00Z,28.9818,-94.9186,14.9,11144222 
TABS,ioos:station:wmo:42043:1,2005-02-09T00:00:00Z,28.9818,-94.9186,14.9,11144222 
TABS,ioos:station:wmo:42043:1,2005-02-09T00:30:00Z,28.9818,-94.9186,14.9,11144222 
TABS,ioos:station:wmo:42043:1,2005-02-09T01:00:00Z,28.9818,-94.9186,15.3,11144222 
TABS,ioos:station:wmo:42043:1,2005-02-09T01:30:00Z,28.9818,-94.9186,15.4,11144222 
TABS,ioos:station:wmo:42043:1,2005-02-09T02:00:00Z,28.9818,-94.9186,15.1,11144222 
TABS,ioos:station:wmo:42043:1,2005-02-09T02:30:00Z,28.9818,-94.9186,15.6,11144222 
TABS,ioos:station:wmo:42043:1,2005-02-09T03:00:00Z,28.9818,-94.9186,15.4,11144222 
TABS,ioos:station:wmo:42043:1,2005-02-09T03:30:00Z,28.9818,-94.9186,15.0,11144222 
TABS,ioos:station:wmo:42043:1,2005-02-09T04:00:00Z,28.9818,-94.9186,15.2,11144222 
TABS,ioos:station:wmo:42043:1,2005-02-09T04:30:00Z,28.9818,-94.9186,15.2,11144222 
TABS,ioos:station:wmo:42043:1,2005-02-09T05:00:00Z,28.9818,-94.9186,15.0,11144222 
TABS,ioos:station:wmo:42043:1,2005-02-09T05:30:00Z,28.9818,-94.9186,14.6,11144222 
TABS,ioos:station:wmo:42043:1,2005-02-09T06:00:00Z,28.9818,-94.9186,15.1,11144222 
TABS,ioos:station:wmo:42043:1,2005-02-09T06:30:00Z,28.9818,-94.9186,14.8,11144222 
TABS,ioos:station:wmo:42043:1,2005-02-09T07:00:00Z,28.9818,-94.9186,15.4,11144222 
TABS,ioos:station:wmo:42043:1,2005-02-09T07:30:00Z,28.9818,-94.9186,14.4,11144222 
TABS,ioos:station:wmo:42043:1,2005-02-09T08:00:00Z,28.9818,-94.9186,14.4,11144222 
TABS,ioos:station:wmo:42043:1,2005-02-09T08:30:00Z,28.9818,-94.9186,14.3,11144222 
TABS,ioos:station:wmo:42043:1,2005-02-09T09:00:00Z,28.9818,-94.9186,15.2,11144222 
TABS,ioos:station:wmo:42043:1,2005-02-09T09:30:00Z,28.9818,-94.9186,15.1,11144222 
TABS,ioos:station:wmo:42043:1,2005-02-09T10:00:00Z,28.9818,-94.9186,16.5,11144222 
TABS,ioos:station:wmo:42043:1,2005-02-09T10:30:00Z,28.9818,-94.9186,14.6,11144222 
TABS,ioos:station:wmo:42043:1,2005-02-09T11:00:00Z,28.9818,-94.9186,14.0,11144222 
TABS,ioos:station:wmo:42043:1,2005-02-09T11:30:00Z,28.9818,-94.9186,13.6,11144222 
TABS,ioos:station:wmo:42043:1,2005-02-09T12:00:00Z,28.9818,-94.9186,13.8,11144222 
TABS,ioos:station:wmo:42043:1,2005-02-09T12:30:00Z,28.9818,-94.9186,14.4,11144222 
TABS,ioos:station:wmo:42043:1,2005-02-09T13:00:00Z,28.9818,-94.9186,13.9,11144222 
TABS,ioos:station:wmo:42043:1,2005-02-09T13:30:00Z,28.9818,-94.9186,13.1,11144222 
TABS,ioos:station:wmo:42043:1,2005-02-09T14:00:00Z,28.9818,-94.9186,13.4,11144222 
TABS,ioos:station:wmo:42043:1,2005-02-09T14:30:00Z,28.9818,-94.9186,14.7,11144222 
TABS,ioos:station:wmo:42043:1,2005-02-09T15:00:00Z,28.9818,-94.9186,14.5,11144222 
TABS,ioos:station:wmo:42043:1,2005-02-09T15:30:00Z,28.9818,-94.9186,14.8,11144222 
TABS,ioos:station:wmo:42043:1,2005-02-09T16:00:00Z,28.9818,-94.9186,13.9,11144222 
TABS,ioos:station:wmo:42043:1,2005-02-09T16:30:00Z,28.9818,-94.9186,13.8,11144222 
TABS,ioos:station:wmo:42043:1,2005-02-09T17:00:00Z,28.9818,-94.9186,13.9,11144222 
TABS,ioos:station:wmo:42043:1,2005-02-09T17:30:00Z,28.9818,-94.9186,13.8,11144222 
TABS,ioos:station:wmo:42043:1,2005-02-09T18:00:00Z,28.9818,-94.9186,13.9,11144222 
TABS,ioos:station:wmo:42043:1,2005-02-09T18:30:00Z,28.9818,-94.9186,14.1,11144222 
TABS,ioos:station:wmo:42043:1,2005-02-09T19:00:00Z,28.9818,-94.9186,14.2,11144222 
TABS,ioos:station:wmo:42043:1,2005-02-09T19:30:00Z,28.9818,-94.9186,14.2,11144222 
TABS,ioos:station:wmo:42043:1,2005-02-09T20:00:00Z,28.9818,-94.9186,14.0,11144222 
TABS,ioos:station:wmo:42043:1,2005-02-09T20:30:00Z,28.9818,-94.9186,13.8,11144222 
TABS,ioos:station:wmo:42043:1,2005-02-09T21:00:00Z,28.9818,-94.9186,13.8,11144222 
TABS,ioos:station:wmo:42043:1,2005-02-09T21:30:00Z,28.9818,-94.9186,13.9,11144222 
TABS,ioos:station:wmo:42043:1,2005-02-09T22:00:00Z,28.9818,-94.9186,13.9,11144222 
TABS,ioos:station:wmo:42043:1,2005-02-09T22:30:00Z,28.9818,-94.9186,13.9,11144222 
TABS,ioos:station:wmo:42043:1,2005-02-09T23:00:00Z,28.9818,-94.9186,14.0,11144222 
TABS,ioos:station:wmo:42043:1,2005-02-09T23:30:00Z,28.9818,-94.9186,14.2,11144222 
TABS,ioos:station:wmo:42043:1,2005-02-10T00:00:00Z,28.9818,-94.9186,13.9,11144222 
TABS,ioos:station:wmo:42043:1,2005-02-10T00:30:00Z,28.9818,-94.9186,13.9,11144222 
TABS,ioos:station:wmo:42043:1,2005-02-10T01:00:00Z,28.9818,-94.9186,13.6,11144222 
TABS,ioos:station:wmo:42043:1,2005-02-10T01:30:00Z,28.9818,-94.9186,13.1,11144222 
TABS,ioos:station:wmo:42043:1,2005-02-10T02:00:00Z,28.9818,-94.9186,13.0,11144222 
TABS,ioos:station:wmo:42043:1,2005-02-10T02:30:00Z,28.9818,-94.9186,12.5,11144222 
TABS,ioos:station:wmo:42043:1,2005-02-10T03:00:00Z,28.9818,-94.9186,12.4,11144222 
TABS,ioos:station:wmo:42043:1,2005-02-10T03:30:00Z,28.9818,-94.9186,12.2,11144222 
TABS,ioos:station:wmo:42043:1,2005-02-10T04:00:00Z,28.9818,-94.9186,12.1,11144222 
TABS,ioos:station:wmo:42043:1,2005-02-10T04:30:00Z,28.9818,-94.9186,11.4,11144222 
TABS,ioos:station:wmo:42043:1,2005-02-10T05:00:00Z,28.9818,-94.9186,10.7,11144222 
TABS,ioos:station:wmo:42043:1,2005-02-10T05:30:00Z,28.9818,-94.9186,10.3,11144222 
TABS,ioos:station:wmo:42043:1,2005-02-10T06:00:00Z,28.9818,-94.9186,10.0,11144222 
TABS,ioos:station:wmo:42043:1,2005-02-10T06:30:00Z,28.9818,-94.9186,9.9,11144222 
TABS,ioos:station:wmo:42043:1,2005-02-10T07:00:00Z,28.9818,-94.9186,10.1,11144222 
TABS,ioos:station:wmo:42043:1,2005-02-10T07:30:00Z,28.9818,-94.9186,9.9,11144222 
TABS,ioos:station:wmo:42043:1,2005-02-10T08:00:00Z,28.9818,-94.9186,9.7,11144222 
TABS,ioos:station:wmo:42043:1,2005-02-10T08:30:00Z,28.9818,-94.9186,9.7,11144222 
TABS,ioos:station:wmo:42043:1,2005-02-10T09:00:00Z,28.9818,-94.9186,9.6,11144222 
TABS,ioos:station:wmo:42043:1,2005-02-10T09:30:00Z,28.9818,-94.9186,9.6,11144222 
TABS,ioos:station:wmo:42043:1,2005-02-10T10:00:00Z,28.9818,-94.9186,9.5,11144222 
TABS,ioos:station:wmo:42043:1,2005-02-10T10:30:00Z,28.9818,-94.9186,9.4,11144222 
TABS,ioos:station:wmo:42043:1,2005-02-10T11:00:00Z,28.9818,-94.9186,9.1,11144222 
TABS,ioos:station:wmo:42043:1,2005-02-10T11:30:00Z,28.9818,-94.9186,8.6,11144222 
TABS,ioos:station:wmo:42043:1,2005-02-10T12:00:00Z,28.9818,-94.9186,8.3,11144222 
TABS,ioos:station:wmo:42043:1,2005-02-10T12:30:00Z,28.9818,-94.9186,8.5,11144222 
TABS,ioos:station:wmo:42043:1,2005-02-10T13:00:00Z,28.9818,-94.9186,8.8,11144222 
TABS,ioos:station:wmo:42043:1,2005-02-10T13:30:00Z,28.9818,-94.9186,8.6,11144222 
TABS,ioos:station:wmo:42043:1,2005-02-10T14:00:00Z,28.9818,-94.9186,8.2,11144222 
TABS,ioos:station:wmo:42043:1,2005-02-10T14:30:00Z,28.9818,-94.9186,8.4,11144222 
TABS,ioos:station:wmo:42043:1,2005-02-10T15:00:00Z,28.9818,-94.9186,8.6,11144222 
TABS,ioos:station:wmo:42043:1,2005-02-10T15:30:00Z,28.9818,-94.9186,8.5,11144222 
TABS,ioos:station:wmo:42043:1,2005-02-10T16:00:00Z,28.9818,-94.9186,8.4,11144222 
TABS,ioos:station:wmo:42043:1,2005-02-10T16:30:00Z,28.9818,-94.9186,8.4,11144222 
TABS,ioos:station:wmo:42043:1,2005-02-10T17:00:00Z,28.9818,-94.9186,8.9,11144222 
TABS,ioos:station:wmo:42043:1,2005-02-10T17:30:00Z,28.9818,-94.9186,8.9,11144222 
TABS,ioos:station:wmo:42043:1,2005-02-10T18:00:00Z,28.9818,-94.9186,9.1,11144222 
TABS,ioos:station:wmo:42043:1,2005-02-10T18:30:00Z,28.9818,-94.9186,9.5,11144222 
TABS,ioos:station:wmo:42043:1,2005-02-10T19:00:00Z,28.9818,-94.9186,9.6,11144222 
TABS,ioos:station:wmo:42043:1,2005-02-10T19:30:00Z,28.9818,-94.9186,10.1,11144222 
TABS,ioos:station:wmo:42043:1,2005-02-10T20:00:00Z,28.9818,-94.9186,10.2,11144222 
TABS,ioos:station:wmo:42043:1,2005-02-10T20:30:00Z,28.9818,-94.9186,10.8,11144222 
TABS,ioos:station:wmo:42043:1,2005-02-10T21:00:00Z,28.9818,-94.9186,10.8,11144222 
TABS,ioos:station:wmo:42043:1,2005-02-10T21:30:00Z,28.9818,-94.9186,11.0,11144222 
TABS,ioos:station:wmo:42043:1,2005-02-10T22:00:00Z,28.9818,-94.9186,11.4,11144222 
TABS,ioos:station:wmo:42043:1,2005-02-10T22:30:00Z,28.9818,-94.9186,11.5,11144222 
TABS,ioos:station:wmo:42043:1,2005-02-10T23:00:00Z,28.9818,-94.9186,11.5,11144222 
TABS,ioos:station:wmo:42043:1,2005-02-10T23:30:00Z,28.9818,-94.9186,11.3,11144222 
TABS,ioos:station:wmo:42043:1,2005-02-11T00:00:00Z,28.9818,-94.9186,11.2,11144222 
TABS,ioos:station:wmo:42043:1,2005-02-11T00:30:00Z,28.9818,-94.9186,11.4,11144222 
TABS,ioos:station:wmo:42043:1,2005-02-11T01:00:00Z,28.9818,-94.9186,11.4,11144222 
TABS,ioos:station:wmo:42043:1,2005-02-11T01:30:00Z,28.9818,-94.9186,11.5,11144222 
TABS,ioos:station:wmo:42043:1,2005-02-11T02:00:00Z,28.9818,-94.9186,11.6,11144222 
TABS,ioos:station:wmo:42043:1,2005-02-11T02:30:00Z,28.9818,-94.9186,11.6,11144222 
TABS,ioos:station:wmo:42043:1,2005-02-11T03:00:00Z,28.9818,-94.9186,11.7,11144222 
TABS,ioos:station:wmo:42043:1,2005-02-11T03:30:00Z,28.9818,-94.9186,11.8,11144222 
TABS,ioos:station:wmo:42043:1,2005-02-11T04:00:00Z,28.9818,-94.9186,11.8,11144222 
TABS,ioos:station:wmo:42043:1,2005-02-11T04:30:00Z,28.9818,-94.9186,11.8,11144222 
TABS,ioos:station:wmo:42043:1,2005-02-11T05:00:00Z,28.9818,-94.9186,12.1,11144222 
TABS,ioos:station:wmo:42043:1,2005-02-11T05:30:00Z,28.9818,-94.9186,12.1,11144222 
TABS,ioos:station:wmo:42043:1,2005-02-11T06:00:00Z,28.9818,-94.9186,12.0,11144222 
TABS,ioos:station:wmo:42043:1,2005-02-11T06:30:00Z,28.9818,-94.9186,11.9,11144222 
TABS,ioos:station:wmo:42043:1,2005-02-11T07:00:00Z,28.9818,-94.9186,11.7,11144222 
TABS,ioos:station:wmo:42043:1,2005-02-11T07:30:00Z,28.9818,-94.9186,11.6,11144222 
TABS,ioos:station:wmo:42043:1,2005-02-11T08:00:00Z,28.9818,-94.9186,11.5,11144222 
TABS,ioos:station:wmo:42043:1,2005-02-11T08:30:00Z,28.9818,-94.9186,11.3,11144222 
TABS,ioos:station:wmo:42043:1,2005-02-11T09:00:00Z,28.9818,-94.9186,11.3,11144222 
TABS,ioos:station:wmo:42043:1,2005-02-11T09:30:00Z,28.9818,-94.9186,11.5,11144222 
TABS,ioos:station:wmo:42043:1,2005-02-11T10:00:00Z,28.9818,-94.9186,11.6,11144222 
TABS,ioos:station:wmo:42043:1,2005-02-11T10:30:00Z,28.9818,-94.9186,11.5,11144222 
TABS,ioos:station:wmo:42043:1,2005-02-11T11:00:00Z,28.9818,-94.9186,11.6,11144222 
TABS,ioos:station:wmo:42043:1,2005-02-11T11:30:00Z,28.9818,-94.9186,11.6,11144222 
TABS,ioos:station:wmo:42043:1,2005-02-11T12:00:00Z,28.9818,-94.9186,11.5,11144222 
TABS,ioos:station:wmo:42043:1,2005-02-11T12:30:00Z,28.9818,-94.9186,11.4,11144222 
TABS,ioos:station:wmo:42043:1,2005-02-11T13:00:00Z,28.9818,-94.9186,11.4,11144222 
TABS,ioos:station:wmo:42043:1,2005-02-11T13:30:00Z,28.9818,-94.9186,11.4,11144222 
TABS,ioos:station:wmo:42043:1,2005-02-11T14:00:00Z,28.9818,-94.9186,11.7,11144222 
TABS,ioos:station:wmo:42043:1,2005-02-11T14:30:00Z,28.9818,-94.9186,11.9,11144222 
TABS,ioos:station:wmo:42043:1,2005-02-11T15:00:00Z,28.9818,-94.9186,12.0,11144222 
TABS,ioos:station:wmo:42043:1,2005-02-11T15:30:00Z,28.9818,-94.9186,12.0,11144222 
TABS,ioos:station:wmo:42043:1,2005-02-11T16:00:00Z,28.9818,-94.9186,11.9,11144222 
TABS,ioos:station:wmo:42043:1,2005-02-11T16:30:00Z,28.9818,-94.9186,12.1,11144222 
TABS,ioos:station:wmo:42043:1,2005-02-11T17:00:00Z,28.9818,-94.9186,12.1,11144222 
TABS,ioos:station:wmo:42043:1,2005-02-11T17:30:00Z,28.9818,-94.9186,12.2,11144222 
TABS,ioos:station:wmo:42043:1,2005-02-11T18:00:00Z,28.9818,-94.9186,12.1,11144222 
TABS,ioos:station:wmo:42043:1,2005-02-11T18:30:00Z,28.9818,-94.9186,12.1,11144222 
TABS,ioos:station:wmo:42043:1,2005-02-11T19:00:00Z,28.9818,-94.9186,12.1,11144222 
TABS,ioos:station:wmo:42043:1,2005-02-11T19:30:00Z,28.9818,-94.9186,12.2,11144222 
TABS,ioos:station:wmo:42043:1,2005-02-11T20:00:00Z,28.9818,-94.9186,12.2,11144222 
TABS,ioos:station:wmo:42043:1,2005-02-11T20:30:00Z,28.9818,-94.9186,12.3,11144222 
TABS,ioos:station:wmo:42043:1,2005-02-11T21:00:00Z,28.9818,-94.9186,12.3,11144222 
TABS,ioos:station:wmo:42043:1,2005-02-11T21:30:00Z,28.9818,-94.9186,12.3,11144222 
TABS,ioos:station:wmo:42043:1,2005-02-11T22:00:00Z,28.9818,-94.9186,12.2,11144222 
TABS,ioos:station:wmo:42043:1,2005-02-11T22:30:00Z,28.9818,-94.9186,12.2,11144222 
TABS,ioos:station:wmo:42043:1,2005-02-11T23:00:00Z,28.9818,-94.9186,12.4,11144222 
TABS,ioos:station:wmo:42043:1,2005-02-11T23:30:00Z,28.9818,-94.9186,12.4,11144222 
TABS,ioos:station:wmo:42043:1,2005-02-12T00:00:00Z,28.9818,-94.9186,12.4,11144222 
TABS,ioos:station:wmo:42043:1,2005-02-12T00:30:00Z,28.9818,-94.9186,12.4,11144222 
TABS,ioos:station:wmo:42043:1,2005-02-12T01:00:00Z,28.9818,-94.9186,12.3,11144222 
TABS,ioos:station:wmo:42043:1,2005-02-12T01:30:00Z,28.9818,-94.9186,12.3,11144222 
TABS,ioos:station:wmo:42043:1,2005-02-12T02:00:00Z,28.9818,-94.9186,12.2,11144222 
TABS,ioos:station:wmo:42043:1,2005-02-12T02:30:00Z,28.9818,-94.9186,12.3,11144222 
TABS,ioos:station:wmo:42043:1,2005-02-12T03:00:00Z,28.9818,-94.9186,12.1,11144222 
TABS,ioos:station:wmo:42043:1,2005-02-12T03:30:00Z,28.9818,-94.9186,12.1,11144222 
TABS,ioos:station:wmo:42043:1,2005-02-12T04:00:00Z,28.9818,-94.9186,12.0,11144222 
TABS,ioos:station:wmo:42043:1,2005-02-12T04:30:00Z,28.9818,-94.9186,12.0,11144222 
TABS,ioos:station:wmo:42043:1,2005-02-12T05:00:00Z,28.9818,-94.9186,12.1,11144222 
TABS,ioos:station:wmo:42043:1,2005-02-12T05:30:00Z,28.9818,-94.9186,12.3,11144222 
TABS,ioos:station:wmo:42043:1,2005-02-12T06:00:00Z,28.9818,-94.9186,12.3,11144222 
TABS,ioos:station:wmo:42043:1,2005-02-12T06:30:00Z,28.9818,-94.9186,12.5,11144222 
TABS,ioos:station:wmo:42043:1,2005-02-12T07:00:00Z,28.9818,-94.9186,12.4,11144222 
TABS,ioos:station:wmo:42043:1,2005-02-12T07:30:00Z,28.9818,-94.9186,12.2,11144222 
TABS,ioos:station:wmo:42043:1,2005-02-12T08:00:00Z,28.9818,-94.9186,12.2,11144222 
TABS,ioos:station:wmo:42043:1,2005-02-12T08:30:00Z,28.9818,-94.9186,12.1,11144222 
TABS,ioos:station:wmo:42043:1,2005-02-12T09:00:00Z,28.9818,-94.9186,12.0,11144222 
TABS,ioos:station:wmo:42043:1,2005-02-12T09:30:00Z,28.9818,-94.9186,12.0,11144222 
TABS,ioos:station:wmo:42043:1,2005-02-12T10:00:00Z,28.9818,-94.9186,12.2,11144222 
TABS,ioos:station:wmo:42043:1,2005-02-12T10:30:00Z,28.9818,-94.9186,12.4,11144222 
TABS,ioos:station:wmo:42043:1,2005-02-12T11:00:00Z,28.9818,-94.9186,12.4,11144222 
TABS,ioos:station:wmo:42043:1,2005-02-12T11:30:00Z,28.9818,-94.9186,12.5,11144222 
TABS,ioos:station:wmo:42043:1,2005-02-12T12:00:00Z,28.9818,-94.9186,12.6,11144222 
TABS,ioos:station:wmo:42043:1,2005-02-12T12:30:00Z,28.9818,-94.9186,12.7,11144222 
TABS,ioos:station:wmo:42043:1,2005-02-12T13:00:00Z,28.9818,-94.9186,12.9,11144222 
TABS,ioos:station:wmo:42043:1,2005-02-12T13:30:00Z,28.9818,-94.9186,13.1,11144222 
TABS,ioos:station:wmo:42043:1,2005-02-12T14:00:00Z,28.9818,-94.9186,13.3,11144222 
TABS,ioos:station:wmo:42043:1,2005-02-12T14:30:00Z,28.9818,-94.9186,13.5,11144222 
TABS,ioos:station:wmo:42043:1,2005-02-12T15:00:00Z,28.9818,-94.9186,13.8,11144222 
TABS,ioos:station:wmo:42043:1,2005-02-12T15:30:00Z,28.9818,-94.9186,14.5,11144222 
TABS,ioos:station:wmo:42043:1,2005-02-12T16:00:00Z,28.9818,-94.9186,14.3,11144222 
TABS,ioos:station:wmo:42043:1,2005-02-12T16:30:00Z,28.9818,-94.9186,14.0,11144222 
TABS,ioos:station:wmo:42043:1,2005-02-12T17:00:00Z,28.9818,-94.9186,14.8,11144222 
TABS,ioos:station:wmo:42043:1,2005-02-12T17:30:00Z,28.9818,-94.9186,15.0,11144222 
TABS,ioos:station:wmo:42043:1,2005-02-12T18:00:00Z,28.9818,-94.9186,15.1,11144222 
TABS,ioos:station:wmo:42043:1,2005-02-12T18:30:00Z,28.9818,-94.9186,15.0,11144222 
TABS,ioos:station:wmo:42043:1,2005-02-12T19:00:00Z,28.9818,-94.9186,15.0,11144222 
TABS,ioos:station:wmo:42043:1,2005-02-12T19:30:00Z,28.9818,-94.9186,15.3,11144222 
TABS,ioos:station:wmo:42043:1,2005-02-12T20:00:00Z,28.9818,-94.9186,15.3,11144222 
TABS,ioos:station:wmo:42043:1,2005-02-12T20:30:00Z,28.9818,-94.9186,15.6,11144222 
TABS,ioos:station:wmo:42043:1,2005-02-12T21:00:00Z,28.9818,-94.9186,15.7,11144222 
TABS,ioos:station:wmo:42043:1,2005-02-12T21:30:00Z,28.9818,-94.9186,15.5,11144222 
TABS,ioos:station:wmo:42043:1,2005-02-12T22:00:00Z,28.9818,-94.9186,15.4,11144222 
TABS,ioos:station:wmo:42043:1,2005-02-12T22:30:00Z,28.9818,-94.9186,15.8,11144222 
TABS,ioos:station:wmo:42043:1,2005-02-12T23:00:00Z,28.9818,-94.9186,15.7,11144222 
TABS,ioos:station:wmo:42043:1,2005-02-12T23:30:00Z,28.9818,-94.9186,15.4,11144222 
TABS,ioos:station:wmo:42043:1,2005-02-13T00:00:00Z,28.9818,-94.9186,15.2,11144222 
TABS,ioos:station:wmo:42043:1,2005-02-13T00:30:00Z,28.9818,-94.9186,15.3,11144222 
TABS,ioos:station:wmo:42043:1,2005-02-13T01:00:00Z,28.9818,-94.9186,15.0,11144222 
TABS,ioos:station:wmo:42043:1,2005-02-13T01:30:00Z,28.9818,-94.9186,15.1,11144222 
TABS,ioos:station:wmo:42043:1,2005-02-13T02:00:00Z,28.9818,-94.9186,15.3,11144222 
TABS,ioos:station:wmo:42043:1,2005-02-13T02:30:00Z,28.9818,-94.9186,15.1,11144222 
TABS,ioos:station:wmo:42043:1,2005-02-13T03:00:00Z,28.9818,-94.9186,15.2,11144222 
TABS,ioos:station:wmo:42043:1,2005-02-13T03:30:00Z,28.9818,-94.9186,15.3,11144222 
TABS,ioos:station:wmo:42043:1,2005-02-13T04:00:00Z,28.9818,-94.9186,15.3,11144222 
TABS,ioos:station:wmo:42043:1,2005-02-13T04:30:00Z,28.9818,-94.9186,15.2,11144222 
TABS,ioos:station:wmo:42043:1,2005-02-13T05:00:00Z,28.9818,-94.9186,15.3,11144222 
TABS,ioos:station:wmo:42043:1,2005-02-13T05:30:00Z,28.9818,-94.9186,15.1,11144222 
TABS,ioos:station:wmo:42043:1,2005-02-13T06:00:00Z,28.9818,-94.9186,15.1,11144222 
TABS,ioos:station:wmo:42043:1,2005-02-13T06:30:00Z,28.9818,-94.9186,15.1,11144222 
TABS,ioos:station:wmo:42043:1,2005-02-13T07:00:00Z,28.9818,-94.9186,15.0,11144222 
TABS,ioos:station:wmo:42043:1,2005-02-13T07:30:00Z,28.9818,-94.9186,15.9,11144222 
TABS,ioos:station:wmo:42043:1,2005-02-13T08:00:00Z,28.9818,-94.9186,16.1,11144222 
TABS,ioos:station:wmo:42043:1,2005-02-13T08:30:00Z,28.9818,-94.9186,16.1,11144222 
TABS,ioos:station:wmo:42043:1,2005-02-13T09:00:00Z,28.9818,-94.9186,16.3,11144222 
TABS,ioos:station:wmo:42043:1,2005-02-13T09:30:00Z,28.9818,-94.9186,16.4,11144222 
TABS,ioos:station:wmo:42043:1,2005-02-13T10:00:00Z,28.9818,-94.9186,16.4,11144222 
TABS,ioos:station:wmo:42043:1,2005-02-13T10:30:00Z,28.9818,-94.9186,16.1,11144222 
TABS,ioos:station:wmo:42043:1,2005-02-13T11:00:00Z,28.9818,-94.9186,16.0,11144222 
TABS,ioos:station:wmo:42043:1,2005-02-13T11:30:00Z,28.9818,-94.9186,16.3,11144222 
TABS,ioos:station:wmo:42043:1,2005-02-13T12:00:00Z,28.9818,-94.9186,16.5,11144222 
TABS,ioos:station:wmo:42043:1,2005-02-13T12:30:00Z,28.9818,-94.9186,16.4,11144222 
TABS,ioos:station:wmo:42043:1,2005-02-13T13:00:00Z,28.9818,-94.9186,16.8,11144222 
TABS,ioos:station:wmo:42043:1,2005-02-13T13:30:00Z,28.9818,-94.9186,16.7,11144222 
TABS,ioos:station:wmo:42043:1,2005-02-13T14:00:00Z,28.9818,-94.9186,16.5,11144222 
TABS,ioos:station:wmo:42043:1,2005-02-13T14:30:00Z,28.9818,-94.9186,16.2,11144222 
TABS,ioos:station:wmo:42043:1,2005-02-13T15:00:00Z,28.9818,-94.9186,15.8,11144222 
TABS,ioos:station:wmo:42043:1,2005-02-13T15:30:00Z,28.9818,-94.9186,15.8,11144222 
TABS,ioos:station:wmo:42043:1,2005-02-13T16:00:00Z,28.9818,-94.9186,15.2,11144222 
TABS,ioos:station:wmo:42043:1,2005-02-13T16:30:00Z,28.9818,-94.9186,15.6,11144222 
TABS,ioos:station:wmo:42043:1,2005-02-13T17:00:00Z,28.9818,-94.9186,16.1,11144222 
TABS,ioos:station:wmo:42043:1,2005-02-13T17:30:00Z,28.9818,-94.9186,16.1,11144222 
TABS,ioos:station:wmo:42043:1,2005-02-13T18:00:00Z,28.9818,-94.9186,15.3,11144222 
TABS,ioos:station:wmo:42043:1,2005-02-13T18:30:00Z,28.9818,-94.9186,16.1,11144222 
TABS,ioos:station:wmo:42043:1,2005-02-13T19:00:00Z,28.9818,-94.9186,15.5,11144222 
TABS,ioos:station:wmo:42043:1,2005-02-13T19:30:00Z,28.9818,-94.9186,16.0,11144222 
TABS,ioos:station:wmo:42043:1,2005-02-13T20:00:00Z,28.9818,-94.9186,15.5,11144222 
TABS,ioos:station:wmo:42043:1,2005-02-13T20:30:00Z,28.9818,-94.9186,15.7,11144222 
TABS,ioos:station:wmo:42043:1,2005-02-13T21:00:00Z,28.9818,-94.9186,16.1,11144222 
TABS,ioos:station:wmo:42043:1,2005-02-13T21:30:00Z,28.9818,-94.9186,16.5,11144222 
TABS,ioos:station:wmo:42043:1,2005-02-13T22:00:00Z,28.9818,-94.9186,16.1,11144222 
TABS,ioos:station:wmo:42043:1,2005-02-13T22:30:00Z,28.9818,-94.9186,15.6,11144222 
TABS,ioos:station:wmo:42043:1,2005-02-13T23:00:00Z,28.9818,-94.9186,16.2,11144222 
TABS,ioos:station:wmo:42043:1,2005-02-13T23:30:00Z,28.9818,-94.9186,16.6,11144222 
TABS,ioos:station:wmo:42043:1,2005-02-14T00:00:00Z,28.9818,-94.9186,15.9,11144222 
TABS,ioos:station:wmo:42043:1,2005-02-14T00:30:00Z,28.9818,-94.9186,15.2,11144222 
TABS,ioos:station:wmo:42043:1,2005-02-14T01:00:00Z,28.9818,-94.9186,15.4,11144222 
TABS,ioos:station:wmo:42043:1,2005-02-14T01:30:00Z,28.9818,-94.9186,15.5,11144222 
TABS,ioos:station:wmo:42043:1,2005-02-14T02:00:00Z,28.9818,-94.9186,15.6,11144222 
TABS,ioos:station:wmo:42043:1,2005-02-14T02:30:00Z,28.9818,-94.9186,15.3,11144222 
TABS,ioos:station:wmo:42043:1,2005-02-14T03:00:00Z,28.9818,-94.9186,15.3,11144222 
TABS,ioos:station:wmo:42043:1,2005-02-14T03:30:00Z,28.9818,-94.9186,15.3,11144222 
TABS,ioos:station:wmo:42043:1,2005-02-14T04:00:00Z,28.9818,-94.9186,15.1,11144222 
TABS,ioos:station:wmo:42043:1,2005-02-14T04:30:00Z,28.9818,-94.9186,15.2,11144222 
TABS,ioos:station:wmo:42043:1,2005-02-14T05:00:00Z,28.9818,-94.9186,14.8,11144222 
TABS,ioos:station:wmo:42043:1,2005-02-14T05:30:00Z,28.9818,-94.9186,14.4,11144222 
TABS,ioos:station:wmo:42043:1,2005-02-14T06:00:00Z,28.9818,-94.9186,14.3,11144222 
TABS,ioos:station:wmo:42043:1,2005-02-14T06:30:00Z,28.9818,-94.9186,14.7,11144222 
TABS,ioos:station:wmo:42043:1,2005-02-14T07:00:00Z,28.9818,-94.9186,14.5,11144222 
TABS,ioos:station:wmo:42043:1,2005-02-14T07:30:00Z,28.9818,-94.9186,14.3,11144222 
TABS,ioos:station:wmo:42043:1,2005-02-14T08:00:00Z,28.9818,-94.9186,14.4,11144222 
TABS,ioos:station:wmo:42043:1,2005-02-14T08:30:00Z,28.9818,-94.9186,14.2,11144222 
TABS,ioos:station:wmo:42043:1,2005-02-14T09:00:00Z,28.9818,-94.9186,14.0,11144222 
TABS,ioos:station:wmo:42043:1,2005-02-14T09:30:00Z,28.9818,-94.9186,13.9,11144222 
TABS,ioos:station:wmo:42043:1,2005-02-14T10:00:00Z,28.9818,-94.9186,13.9,11144222 
TABS,ioos:station:wmo:42043:1,2005-02-14T10:30:00Z,28.9818,-94.9186,13.5,11144222 
TABS,ioos:station:wmo:42043:1,2005-02-14T11:00:00Z,28.9818,-94.9186,13.3,11144222 
TABS,ioos:station:wmo:42043:1,2005-02-14T11:30:00Z,28.9818,-94.9186,13.2,11144222 
TABS,ioos:station:wmo:42043:1,2005-02-14T12:00:00Z,28.9818,-94.9186,13.2,11144222 
TABS,ioos:station:wmo:42043:1,2005-02-14T12:30:00Z,28.9818,-94.9186,13.1,11144222 
TABS,ioos:station:wmo:42043:1,2005-02-14T13:00:00Z,28.9818,-94.9186,12.8,11144222 
TABS,ioos:station:wmo:42043:1,2005-02-14T13:30:00Z,28.9818,-94.9186,12.6,11144222 
TABS,ioos:station:wmo:42043:1,2005-02-14T14:00:00Z,28.9818,-94.9186,12.4,11144222 
TABS,ioos:station:wmo:42043:1,2005-02-14T14:30:00Z,28.9818,-94.9186,12.7,11144222 